Location: Aalsum
(53.3404°N, 6.0062°E)
Time: 04:17:25
(UTC+00:00)

Cosmos 1536 Rocket - Pass Details

Date: 28 January 2023
Orbit: 604 x 630 km, 82.5° (Epoch: 24 March)

Event Time Altitude Azimuth Distance (km) Brightness Sun altitude
Rises 18:12:37 0° 186° (S) 2,850 7.1 -17.9°
Reaches altitude 10° 18:14:48 10° 186° (S) 1,951 6.2 -18.3°
Maximum altitude 18:19:07 81° 99° (E) 620 3.4 -18.9°
Drops below altitude 10° 18:23:29 10° 13° (NNE) 1,971 6.0 -19.6°
Enters shadow 18:24:09 - 13° (NNE) 2,246 6.3 -19.7°
